Time,TemperatureF,DewpointF,PressureIn,WindDirection,WindDirectionDegrees,WindSpeedMPH,WindSpeedGustMPH,Humidity,HourlyPrecipIn,Conditions,Clouds,dailyrainin,SolarRadiationWatts/m^2,SoftwareType,DateUTC
2013-04-16 00:03:00,63.0,62.0,-100.00,ENE,71,0.0,0.0,96,0.00,,,0.25,0.000000,,2013-04-16 04:03:00,
2013-04-16 00:13:00,63.0,62.0,-100.00,ENE,71,0.0,0.0,96,0.00,,,0.25,0.000000,,2013-04-16 04:13:00,
2013-04-16 00:33:00,61.0,60.0,-100.00,ENE,70,0.0,0.0,96,0.00,,,0.25,0.000000,,2013-04-16 04:33:00,
2013-04-16 00:42:00,61.0,60.0,-100.00,ENE,70,0.0,0.0,96,0.00,,,0.25,0.000000,,2013-04-16 04:42:00,
2013-04-16 00:53:00,61.0,60.0,-100.00,ENE,70,0.0,0.0,96,0.00,,,0.25,0.000000,,2013-04-16 04:53:00,
2013-04-16 01:03:00,61.0,60.0,-100.00,ENE,70,0.0,0.0,96,0.00,,,0.25,0.000000,,2013-04-16 05:03:00,
2013-04-16 01:12:00,61.0,60.0,-100.00,ENE,70,0.0,0.0,96,0.00,,,0.25,0.000000,,2013-04-16 05:12:00,
2013-04-16 01:42:00,60.0,60.0,-100.00,ENE,70,0.0,0.0,99,0.00,,,0.25,0.000000,,2013-04-16 05:42:00,
2013-04-16 01:52:00,60.0,60.0,-100.00,ENE,70,0.0,0.0,99,0.00,,,0.25,0.000000,,2013-04-16 05:52:00,
2013-04-16 02:02:00,60.0,60.0,-100.00,ENE,70,0.0,0.0,99,0.00,,,0.25,0.000000,,2013-04-16 06:02:00,
2013-04-16 02:12:00,60.0,60.0,-100.00,ENE,70,0.0,0.0,99,0.00,,,0.25,0.000000,,2013-04-16 06:12:00,
2013-04-16 02:32:00,58.0,58.0,-100.00,ENE,70,0.0,0.0,100,0.00,,,0.25,0.000000,,2013-04-16 06:32:00,
2013-04-16 02:42:00,58.0,58.0,-100.00,ENE,70,0.0,0.0,100,0.00,,,0.25,0.000000,,2013-04-16 06:42:00,
2013-04-16 02:52:00,58.0,58.0,-100.00,ENE,70,0.0,0.0,100,0.00,,,0.25,0.000000,,2013-04-16 06:52:00,
2013-04-16 03:02:00,58.0,58.0,-100.00,ENE,70,0.0,0.0,100,0.00,,,0.25,0.000000,,2013-04-16 07:02:00,
2013-04-16 03:12:00,58.0,58.0,-100.00,ENE,70,0.0,0.0,100,0.00,,,0.25,0.000000,,2013-04-16 07:12:00,
2013-04-16 03:42:00,57.0,57.0,-100.00,ENE,70,0.0,0.0,100,0.00,,,0.25,0.000000,,2013-04-16 07:42:00,
2013-04-16 03:53:00,57.0,57.0,-100.00,ENE,70,0.0,0.0,100,0.00,,,0.25,0.000000,,2013-04-16 07:53:00,
2013-04-16 04:02:00,57.0,57.0,-100.00,ENE,70,0.0,0.0,100,0.00,,,0.25,0.000000,,2013-04-16 08:02:00,
2013-04-16 04:12:00,57.0,57.0,-100.00,ENE,70,0.0,0.0,100,0.00,,,0.25,0.000000,,2013-04-16 08:12:00,
2013-04-16 04:42:00,58.0,58.0,-100.00,ENE,64,0.0,0.0,100,0.00,,,0.22,0.000000,,2013-04-16 08:42:00,
2013-04-16 04:52:00,58.0,58.0,-100.00,ENE,64,0.0,0.0,100,0.00,,,0.22,0.000000,,2013-04-16 08:52:00,
2013-04-16 05:02:00,58.0,58.0,-100.00,ENE,64,0.0,0.0,100,0.00,,,0.22,0.000000,,2013-04-16 09:02:00,
2013-04-16 05:12:00,58.0,58.0,-100.00,ENE,64,0.0,0.0,100,0.00,,,0.22,0.000000,,2013-04-16 09:12:00,
2013-04-16 05:43:00,58.0,58.0,-100.00,NE,38,1.0,4.0,100,0.00,,,0.18,0.000000,,2013-04-16 09:43:00,
2013-04-16 05:53:00,58.0,58.0,-100.00,NE,38,1.0,4.0,100,0.00,,,0.18,0.000000,,2013-04-16 09:53:00,
2013-04-16 06:03:00,58.0,58.0,-100.00,NE,38,1.0,4.0,100,0.00,,,0.18,0.000000,,2013-04-16 10:03:00,
2013-04-16 06:13:00,58.0,58.0,-100.00,NE,38,1.0,4.0,100,0.00,,,0.18,0.000000,,2013-04-16 10:13:00,
2013-04-16 06:43:00,59.0,59.0,-100.00,NNE,28,0.0,4.0,100,0.00,,,0.13,0.000000,,2013-04-16 10:43:00,
2013-04-16 06:53:00,59.0,59.0,-100.00,NNE,28,0.0,4.0,100,0.00,,,0.13,0.000000,,2013-04-16 10:53:00,
2013-04-16 07:03:00,59.0,59.0,-100.00,NNE,28,0.0,4.0,100,0.00,,,0.13,0.000000,,2013-04-16 11:03:00,
2013-04-16 07:12:00,59.0,59.0,-100.00,NNE,28,0.0,4.0,100,0.00,,,0.13,0.000000,,2013-04-16 11:12:00,
2013-04-16 07:32:00,59.0,59.0,-100.00,ENE,74,2.0,4.0,100,0.00,,,0.05,6.000000,,2013-04-16 11:32:00,
2013-04-16 07:42:00,59.0,59.0,-100.00,ENE,74,2.0,4.0,100,0.00,,,0.05,6.000000,,2013-04-16 11:42:00,
2013-04-16 07:53:00,59.0,59.0,-100.00,ENE,74,2.0,4.0,100,0.00,,,0.05,6.000000,,2013-04-16 11:53:00,
2013-04-16 08:02:00,59.0,59.0,-100.00,ENE,74,2.0,4.0,100,0.00,,,0.05,6.000000,,2013-04-16 12:02:00,
2013-04-16 08:12:00,59.0,59.0,-100.00,ENE,74,2.0,4.0,100,0.00,,,0.05,6.000000,,2013-04-16 12:12:00,
2013-04-16 08:42:00,61.0,61.0,-100.00,NE,38,0.0,6.0,100,0.00,,,0.01,34.000000,,2013-04-16 12:42:00,
2013-04-16 08:52:00,61.0,61.0,-100.00,NE,38,0.0,6.0,100,0.00,,,0.01,34.000000,,2013-04-16 12:52:00,
2013-04-16 09:02:00,61.0,61.0,-100.00,NE,38,0.0,6.0,100,0.00,,,0.01,34.000000,,2013-04-16 13:02:00,
2013-04-16 09:12:00,61.0,61.0,-100.00,NE,38,0.0,6.0,100,0.00,,,0.01,34.000000,,2013-04-16 13:12:00,
2013-04-16 09:42:00,65.0,65.0,-100.00,NE,36,1.0,4.0,100,0.00,,,0.01,220.000000,,2013-04-16 13:42:00,
2013-04-16 09:52:00,65.0,65.0,-100.00,NE,36,1.0,4.0,100,0.00,,,0.01,220.000000,,2013-04-16 13:52:00,
2013-04-16 10:02:00,65.0,65.0,-100.00,NE,36,1.0,4.0,100,0.00,,,0.01,220.000000,,2013-04-16 14:02:00,
2013-04-16 10:12:00,65.0,65.0,-100.00,NE,36,1.0,4.0,100,0.00,,,0.01,220.000000,,2013-04-16 14:12:00,
2013-04-16 10:42:00,71.0,65.0,-100.00,NE,55,3.0,8.0,82,0.00,,,0.01,425.000000,,2013-04-16 14:42:00,
2013-04-16 10:52:00,71.0,65.0,-100.00,NE,55,3.0,8.0,82,0.00,,,0.01,425.000000,,2013-04-16 14:52:00,
2013-04-16 11:02:00,71.0,65.0,-100.00,NE,55,3.0,8.0,82,0.00,,,0.01,425.000000,,2013-04-16 15:02:00,
2013-04-16 11:12:00,71.0,65.0,-100.00,NE,55,3.0,8.0,82,0.00,,,0.01,425.000000,,2013-04-16 15:12:00,
2013-04-16 11:43:00,75.0,65.0,-100.00,ESE,115,5.0,10.0,70,0.00,,,0.01,846.000000,,2013-04-16 15:43:00,
2013-04-16 11:53:00,75.0,65.0,-100.00,ESE,115,5.0,10.0,70,0.00,,,0.01,846.000000,,2013-04-16 15:53:00,
2013-04-16 12:03:00,75.0,65.0,-100.00,ESE,115,5.0,10.0,70,0.00,,,0.01,846.000000,,2013-04-16 16:03:00,
2013-04-16 12:13:00,75.0,65.0,-100.00,ESE,115,5.0,10.0,70,0.00,,,0.01,846.000000,,2013-04-16 16:13:00,
2013-04-16 12:42:00,76.0,64.0,-100.00,ESE,123,5.0,9.0,66,0.00,,,0.00,790.000000,,2013-04-16 16:42:00,
2013-04-16 12:53:00,76.0,64.0,-100.00,ESE,123,5.0,9.0,66,0.00,,,0.00,790.000000,,2013-04-16 16:53:00,
2013-04-16 13:02:00,76.0,64.0,-100.00,ESE,123,5.0,9.0,66,0.00,,,0.00,790.000000,,2013-04-16 17:02:00,
2013-04-16 13:12:00,76.0,64.0,-100.00,ESE,123,5.0,9.0,66,0.00,,,0.00,790.000000,,2013-04-16 17:12:00,
2013-04-16 13:43:00,74.0,63.0,-100.00,SE,142,5.0,8.0,68,0.00,,,0.00,409.000000,,2013-04-16 17:43:00,
2013-04-16 13:53:00,74.0,63.0,-100.00,SE,142,5.0,8.0,68,0.00,,,0.00,409.000000,,2013-04-16 17:53:00,
2013-04-16 14:02:00,74.0,63.0,-100.00,SE,142,5.0,8.0,68,0.00,,,0.00,409.000000,,2013-04-16 18:02:00,
2013-04-16 14:12:00,74.0,63.0,-100.00,SE,142,5.0,8.0,68,0.00,,,0.00,409.000000,,2013-04-16 18:12:00,
2013-04-16 14:43:00,76.0,62.0,-100.00,SSE,161,5.0,9.0,61,0.00,,,0.00,502.000000,,2013-04-16 18:43:00,
2013-04-16 14:52:00,76.0,62.0,-100.00,SSE,161,5.0,9.0,61,0.00,,,0.00,502.000000,,2013-04-16 18:52:00,
2013-04-16 15:02:00,76.0,62.0,-100.00,SSE,161,5.0,9.0,61,0.00,,,0.00,502.000000,,2013-04-16 19:02:00,
2013-04-16 15:12:00,76.0,62.0,-100.00,SSE,161,5.0,9.0,61,0.00,,,0.00,502.000000,,2013-04-16 19:12:00,
2013-04-16 15:43:00,75.0,60.0,-100.00,SE,124,4.0,8.0,59,0.00,,,0.00,397.000000,,2013-04-16 19:43:00,
2013-04-16 15:52:00,75.0,60.0,-100.00,SE,124,4.0,8.0,59,0.00,,,0.00,397.000000,,2013-04-16 19:52:00,
2013-04-16 16:02:00,75.0,60.0,-100.00,SE,124,4.0,8.0,59,0.00,,,0.00,397.000000,,2013-04-16 20:02:00,
2013-04-16 16:13:00,75.0,60.0,-100.00,SE,124,4.0,8.0,59,0.00,,,0.00,397.000000,,2013-04-16 20:13:00,
2013-04-16 16:32:00,75.0,60.0,-100.00,SE,124,4.0,10.0,60,0.00,,,0.00,393.000000,,2013-04-16 20:32:00,
2013-04-16 16:42:00,75.0,60.0,-100.00,SE,124,4.0,10.0,60,0.00,,,0.00,393.000000,,2013-04-16 20:42:00,
2013-04-16 16:52:00,75.0,60.0,-100.00,SE,124,4.0,10.0,60,0.00,,,0.00,393.000000,,2013-04-16 20:52:00,
2013-04-16 17:02:00,75.0,60.0,-100.00,SE,124,4.0,10.0,60,0.00,,,0.00,393.000000,,2013-04-16 21:02:00,
2013-04-16 17:12:00,75.0,60.0,-100.00,SE,124,4.0,10.0,60,0.00,,,0.00,393.000000,,2013-04-16 21:12:00,
2013-04-16 17:43:00,72.0,60.0,-100.00,ESE,111,5.0,11.0,67,0.00,,,0.00,325.000000,,2013-04-16 21:43:00,
2013-04-16 17:53:00,72.0,60.0,-100.00,ESE,111,5.0,11.0,67,0.00,,,0.00,325.000000,,2013-04-16 21:53:00,
2013-04-16 18:03:00,72.0,60.0,-100.00,ESE,111,5.0,11.0,67,0.00,,,0.00,325.000000,,2013-04-16 22:03:00,
2013-04-16 18:13:00,72.0,60.0,-100.00,ESE,111,5.0,11.0,67,0.00,,,0.00,325.000000,,2013-04-16 22:13:00,
2013-04-16 18:43:00,70.0,61.0,-100.00,ESE,118,5.0,10.0,72,0.00,,,0.00,181.000000,,2013-04-16 22:43:00,
2013-04-16 18:52:00,70.0,61.0,-100.00,ESE,118,5.0,10.0,72,0.00,,,0.00,181.000000,,2013-04-16 22:52:00,
2013-04-16 19:02:00,70.0,61.0,-100.00,ESE,118,5.0,10.0,72,0.00,,,0.00,181.000000,,2013-04-16 23:02:00,
2013-04-16 19:12:00,70.0,61.0,-100.00,ESE,118,5.0,10.0,72,0.00,,,0.00,181.000000,,2013-04-16 23:12:00,
2013-04-16 19:32:00,67.0,59.0,-100.00,ESE,121,3.0,9.0,75,0.00,,,0.00,63.000000,,2013-04-16 23:32:00,
2013-04-16 19:43:00,67.0,59.0,-100.00,ESE,121,3.0,9.0,75,0.00,,,0.00,63.000000,,2013-04-16 23:43:00,
2013-04-16 19:52:00,67.0,59.0,-100.00,ESE,121,3.0,9.0,75,0.00,,,0.00,63.000000,,2013-04-16 23:52:00,
2013-04-16 20:02:00,67.0,59.0,-100.00,ESE,121,3.0,9.0,75,0.00,,,0.00,63.000000,,2013-04-17 00:02:00,
2013-04-16 20:12:00,67.0,59.0,-100.00,ESE,121,3.0,9.0,75,0.00,,,0.00,63.000000,,2013-04-17 00:12:00,
2013-04-16 20:42:00,64.0,58.0,-100.00,SE,129,0.0,6.0,81,0.00,,,0.00,4.000000,,2013-04-17 00:42:00,
2013-04-16 20:52:00,64.0,58.0,-100.00,SE,129,0.0,6.0,81,0.00,,,0.00,4.000000,,2013-04-17 00:52:00,
2013-04-16 21:02:00,64.0,58.0,-100.00,SE,129,0.0,6.0,81,0.00,,,0.00,4.000000,,2013-04-17 01:02:00,
2013-04-16 21:12:00,64.0,58.0,-100.00,SE,129,0.0,6.0,81,0.00,,,0.00,4.000000,,2013-04-17 01:12:00,
2013-04-16 21:32:00,61.0,59.0,-100.00,ESE,116,0.0,0.0,92,0.00,,,0.00,0.000000,,2013-04-17 01:32:00,
2013-04-16 21:42:00,61.0,59.0,-100.00,ESE,116,0.0,0.0,92,0.00,,,0.00,0.000000,,2013-04-17 01:42:00,
2013-04-16 21:52:00,61.0,59.0,-100.00,ESE,116,0.0,0.0,92,0.00,,,0.00,0.000000,,2013-04-17 01:52:00,
2013-04-16 22:02:00,61.0,59.0,-100.00,ESE,116,0.0,0.0,92,0.00,,,0.00,0.000000,,2013-04-17 02:02:00,
2013-04-16 22:12:00,61.0,59.0,-100.00,ESE,116,0.0,0.0,92,0.00,,,0.00,0.000000,,2013-04-17 02:12:00,
2013-04-16 22:42:00,60.0,58.0,-100.00,SSE,158,0.0,0.0,94,0.00,,,0.00,0.000000,,2013-04-17 02:42:00,
2013-04-16 22:52:00,60.0,58.0,-100.00,SSE,158,0.0,0.0,94,0.00,,,0.00,0.000000,,2013-04-17 02:52:00,
2013-04-16 23:02:00,60.0,58.0,-100.00,SSE,158,0.0,0.0,94,0.00,,,0.00,0.000000,,2013-04-17 03:02:00,
2013-04-16 23:12:00,60.0,58.0,-100.00,SSE,158,0.0,0.0,94,0.00,,,0.00,0.000000,,2013-04-17 03:12:00,
2013-04-16 23:43:00,60.0,59.0,-100.00,ESE,113,1.0,4.0,98,0.00,,,0.00,0.000000,,2013-04-17 03:43:00,
2013-04-16 23:53:00,60.0,59.0,-100.00,ESE,113,1.0,4.0,98,0.00,,,0.00,0.000000,,2013-04-17 03:53:00,